User: anonymous   Login
Location: Follega
(52.8850°N, 5.7362°E)
Time: 12:26:09
(UTC+00:00)
Language:

STARLINK-1230 - Orbit

View from above orbital plane
View from above orbital plane
View from above satellite
View from above satellite

Ground track
Ground track

The orbit data is extracted from the following two-line orbital elements,

1 45189C 20012M   21163.10867403  .00005020  00000-0  33625-3 0  1636
2 45189  53.0532 259.9948 0000853 115.8151 108.9758 15.06401321    13
Epoch (UTC): 12 June 2021 02:36:29
Eccentricity: 0.0000853
inclination: 53.0532°
perigee height: 546 km
apogee height: 548 km
right ascension of ascending node: 259.9948°
argument of perigee: 115.8151°
revolutions per day: 15.06401321
mean anomaly at epoch: 108.9758°
orbit number at epoch: 1

The dashed part of the orbit path shows where the satellite is in the earth's shadow,  

DLR